Find Local Weather

World > North America > United States > Vermont

Brattleboro, Vermont Regional Weather

Lat: 42.86N, Lon: 72.57W
Wx Zone: VTZ015
Feedback
Expires:201805260900;;545139
ASUS41 KBTV 260810
RWRBTV
VERMONT REGIONAL WEATHER ROUNDUP
NATIONAL WEATHER SERVICE BURLINGTON VT
400 AM EDT SAT MAY 26 2018

NOTE: "FAIR" INDICATES FEW OR NO CLOUDS BELOW 12,000 FEET WITH NO 
SIGNIFICANT WEATHER AND/OR OBSTRUCTIONS TO VISIBILITY.

* THESE REPORTS ARE NOT UNDER NWS QUALITY CONTROL AND/OR DO NOT
  REPORT WEATHER SUCH AS PRECIPITATION AND FOG.


VTZ001>019-260900-
_____VERMONT_____

  
CITY           SKY/WX    TMP DP  RH WIND       PRES   REMARKS
BURLINGTON     CLOUDY    64  61  90 CALM      29.69R                  
MONTPELIER     CLOUDY    61  60  97 CALM      29.75S                  
MORRISVILLE    CLOUDY    61  59  93 CALM      29.70F                  
ST. JOHNSBURY*   N/A     61  61 100 MISG      29.68F                  
LYNDONVILLE*   CLOUDY    62  56  82 CALM      29.73S                  
MIDDLEBURY*    LGT RAIN  62  58  88 SE6       29.73R                  
RUTLAND*       CLOUDY    70  50  49 W3        29.75R                  
SPRINGFIELD    FAIR      61  56  83 CALM      29.73R                  
HIGHGATE*      FAIR      65  56  74 S3        29.67R                  
NEWPORT*       CLOUDY    61  57  87 CALM      29.70S                  
BENNINGTON     MOCLDY    61  54  77 S3        29.77S                  

_____LAKE CHAMPLAIN_____

  
CITY           SKY/WX    TMP DP  RH WIND       PRES   REMARKS
BURTON ISLAND*   N/A     64  54  68 S9          N/A                   
COLCHESTER RF*   N/A     68  54  60 W8          N/A                   
DIAMOND ISL*     N/A     75  59  57 SW1         N/A                   

$$


SKY/WX - Weather  TMP - Temperature  DP - Dewpoint  RH - Relative Humidity
WIND - Wind Direction/Speed PRES - Barometric Pressure